Time,TemperatureF,DewpointF,PressureIn,WindDirection,WindDirectionDegrees,WindSpeedMPH,WindSpeedGustMPH,Humidity,HourlyPrecipIn,Conditions,Clouds,dailyrainin,SoftwareType,DateUTC
2013-03-26 00:05:00,31.8,27.9,29.73,SSW,202,0.0,0.0,85,0.00,,,0.00,WUHU21623XXSP,2013-03-26 04:05:00,
2013-03-26 00:16:00,31.8,27.9,29.73,SSW,202,0.0,0.0,85,0.00,,,0.00,WUHU21623XXSP,2013-03-26 04:16:00,
2013-03-26 00:26:00,31.8,27.9,29.74,SSW,202,0.0,0.0,85,0.00,,,0.00,WUHU21623XXSP,2013-03-26 04:26:00,
2013-03-26 00:36:00,31.8,27.9,29.74,SSW,202,0.0,0.0,85,0.00,,,0.00,WUHU21623XXSP,2013-03-26 04:36:00,
2013-03-26 00:46:00,31.8,27.9,29.74,SSW,202,0.0,0.0,85,0.00,,,0.00,WUHU21623XXSP,2013-03-26 04:46:00,
2013-03-26 00:56:00,31.8,27.9,29.74,SSW,202,0.0,0.0,85,0.00,,,0.00,WUHU21623XXSP,2013-03-26 04:56:00,
2013-03-26 01:06:00,31.8,27.9,29.75,SSW,202,0.0,0.0,85,0.00,,,0.00,WUHU21623XXSP,2013-03-26 05:06:00,
2013-03-26 01:16:00,31.8,27.9,29.75,SSW,202,0.0,0.0,85,0.00,,,0.00,WUHU21623XXSP,2013-03-26 05:16:00,
2013-03-26 01:26:00,31.8,27.9,29.75,SSW,202,0.0,0.0,85,0.00,,,0.00,WUHU21623XXSP,2013-03-26 05:26:00,
2013-03-26 01:36:00,31.8,27.9,29.76,SSW,202,0.0,0.0,85,0.00,,,0.00,WUHU21623XXSP,2013-03-26 05:36:00,
2013-03-26 01:46:00,31.8,27.9,29.76,SSW,202,0.0,0.0,85,0.00,,,0.00,WUHU21623XXSP,2013-03-26 05:46:00,
2013-03-26 01:56:00,32.2,28.2,29.77,SW,225,0.0,0.0,85,0.00,,,0.00,WUHU21623XXSP,2013-03-26 05:56:00,
2013-03-26 02:06:00,32.2,28.2,29.77,WNW,292,0.0,0.0,85,0.00,,,0.00,WUHU21623XXSP,2013-03-26 06:06:00,
2013-03-26 02:16:00,32.4,28.4,29.77,NW,315,0.0,0.0,85,0.00,,,0.00,WUHU21623XXSP,2013-03-26 06:16:00,
2013-03-26 02:26:00,32.5,28.5,29.77,WNW,292,0.0,0.0,85,0.00,,,0.00,WUHU21623XXSP,2013-03-26 06:26:00,
2013-03-26 02:36:00,32.5,28.5,29.77,WNW,292,0.0,0.0,85,0.00,,,0.00,WUHU21623XXSP,2013-03-26 06:36:00,
2013-03-26 02:46:00,32.5,28.5,29.78,WNW,292,0.0,0.0,85,0.00,,,0.00,WUHU21623XXSP,2013-03-26 06:46:00,
2013-03-26 02:56:00,32.5,28.5,29.78,NW,315,0.0,0.0,85,0.00,,,0.00,WUHU21623XXSP,2013-03-26 06:56:00,
2013-03-26 03:06:00,32.5,28.5,29.78,NW,315,0.0,0.0,85,0.00,,,0.00,WUHU21623XXSP,2013-03-26 07:06:00,
2013-03-26 03:16:00,32.5,28.5,29.78,NW,315,0.0,0.0,85,0.00,,,0.00,WUHU21623XXSP,2013-03-26 07:16:00,
2013-03-26 03:26:00,32.5,28.5,29.79,NW,315,0.0,0.0,85,0.00,,,0.00,WUHU21623XXSP,2013-03-26 07:26:00,
2013-03-26 03:36:00,32.5,28.5,29.79,NW,315,0.0,0.0,85,0.00,,,0.00,WUHU21623XXSP,2013-03-26 07:36:00,
2013-03-26 03:46:00,32.5,28.5,29.79,NW,315,0.0,0.0,86,0.00,,,0.00,WUHU21623XXSP,2013-03-26 07:46:00,
2013-03-26 03:56:00,32.5,28.8,29.80,NW,315,0.0,0.0,86,0.00,,,0.00,WUHU21623XXSP,2013-03-26 07:56:00,
2013-03-26 04:06:00,32.5,28.8,29.80,WNW,292,0.0,0.0,86,0.00,,,0.00,WUHU21623XXSP,2013-03-26 08:06:00,
2013-03-26 04:16:00,32.5,28.8,29.80,NW,315,0.0,0.0,86,0.00,,,0.00,WUHU21623XXSP,2013-03-26 08:16:00,
2013-03-26 04:26:00,32.5,28.8,29.80,NW,315,0.0,0.0,86,0.00,,,0.00,WUHU21623XXSP,2013-03-26 08:26:00,
2013-03-26 04:36:00,32.5,28.8,29.80,NW,315,0.0,0.0,86,0.01,,,0.01,WUHU21623XXSP,2013-03-26 08:36:00,
2013-03-26 04:46:00,32.7,29.0,29.81,NW,315,0.0,0.0,86,0.01,,,0.01,WUHU21623XXSP,2013-03-26 08:46:00,
2013-03-26 04:56:00,32.7,29.0,29.81,NW,315,6.9,6.9,86,0.01,,,0.01,WUHU21623XXSP,2013-03-26 08:56:00,
2013-03-26 05:06:00,32.7,29.0,29.81,NNW,337,0.0,0.0,86,0.01,,,0.01,WUHU21623XXSP,2013-03-26 09:06:00,
2013-03-26 05:16:00,32.7,28.7,29.82,NNE,22,0.0,1.6,85,0.01,,,0.01,WUHU21623XXSP,2013-03-26 09:16:00,
2013-03-26 05:27:00,32.7,28.7,29.82,NNW,337,0.0,0.0,85,0.01,,,0.01,WUHU21623XXSP,2013-03-26 09:27:00,
2013-03-26 05:37:00,32.7,28.7,29.83,NNW,337,0.0,2.5,85,0.00,,,0.01,WUHU21623XXSP,2013-03-26 09:37:00,
2013-03-26 05:47:00,32.7,28.7,29.83,NNE,22,4.3,6.9,85,0.00,,,0.01,WUHU21623XXSP,2013-03-26 09:47:00,
2013-03-26 05:57:00,32.7,28.4,29.84,North,0,0.0,2.7,84,0.00,,,0.01,WUHU21623XXSP,2013-03-26 09:57:00,
2013-03-26 06:07:00,32.5,28.2,29.84,NE,45,0.0,1.1,84,0.00,,,0.01,WUHU21623XXSP,2013-03-26 10:07:00,
2013-03-26 06:17:00,32.5,28.2,29.84,NW,315,5.4,5.4,84,0.00,,,0.01,WUHU21623XXSP,2013-03-26 10:17:00,
2013-03-26 06:27:00,32.5,28.2,29.85,NNW,337,0.0,5.4,84,0.00,,,0.01,WUHU21623XXSP,2013-03-26 10:27:00,
2013-03-26 06:37:00,32.5,28.2,29.85,NNW,337,0.0,3.4,84,0.00,,,0.01,WUHU21623XXSP,2013-03-26 10:37:00,
2013-03-26 06:47:00,32.5,28.2,29.85,NNW,337,3.6,3.6,84,0.00,,,0.01,WUHU21623XXSP,2013-03-26 10:47:00,
2013-03-26 06:57:00,32.4,28.1,29.86,North,0,0.0,0.0,84,0.00,,,0.01,WUHU21623XXSP,2013-03-26 10:57:00,
2013-03-26 07:07:00,32.2,27.9,29.87,NNW,337,1.3,1.3,84,0.00,,,0.01,WUHU21623XXSP,2013-03-26 11:07:00,
2013-03-26 07:17:00,32.2,27.6,29.87,NW,315,0.0,3.1,83,0.00,,,0.01,WUHU21623XXSP,2013-03-26 11:17:00,
2013-03-26 07:27:00,32.2,27.6,29.88,NW,315,2.2,2.2,83,0.00,,,0.01,WUHU21623XXSP,2013-03-26 11:27:00,
2013-03-26 07:37:00,32.2,27.6,29.88,NW,315,2.9,2.9,83,0.00,,,0.01,WUHU21623XXSP,2013-03-26 11:37:00,
2013-03-26 07:47:00,32.2,27.6,29.88,WNW,292,2.0,2.7,83,0.00,,,0.01,WUHU21623XXSP,2013-03-26 11:47:00,
2013-03-26 07:58:00,32.5,27.7,29.89,NW,315,0.0,7.2,82,0.00,,,0.01,WUHU21623XXSP,2013-03-26 11:58:00,
2013-03-26 08:08:00,32.5,27.7,29.89,NW,315,0.0,0.0,82,0.00,,,0.01,WUHU21623XXSP,2013-03-26 12:08:00,
2013-03-26 08:18:00,32.5,27.7,29.90,NW,315,2.0,2.0,82,0.00,,,0.01,WUHU21623XXSP,2013-03-26 12:18:00,
2013-03-26 08:28:00,32.7,27.8,29.90,NW,315,0.0,2.2,82,0.00,,,0.01,WUHU21623XXSP,2013-03-26 12:28:00,
2013-03-26 08:38:00,32.7,27.5,29.90,NW,315,0.0,2.2,81,0.00,,,0.01,WUHU21623XXSP,2013-03-26 12:38:00,
2013-03-26 08:48:00,32.9,27.7,29.90,NW,315,0.0,1.1,81,0.00,,,0.01,WUHU21623XXSP,2013-03-26 12:48:00,
2013-03-26 08:58:00,33.3,28.0,29.91,NW,315,0.0,0.0,81,0.00,,,0.01,WUHU21623XXSP,2013-03-26 12:58:00,
2013-03-26 09:08:00,33.3,27.7,29.91,NW,315,1.3,6.5,80,0.00,,,0.01,WUHU21623XXSP,2013-03-26 13:08:00,
2013-03-26 09:18:00,33.3,27.7,29.92,WNW,292,0.0,1.3,80,0.00,,,0.01,WUHU21623XXSP,2013-03-26 13:18:00,
2013-03-26 09:28:00,33.3,27.9,29.92,NW,315,4.3,4.3,80,0.00,,,0.01,WUHU21623XXSP,2013-03-26 13:28:00,
2013-03-26 09:38:00,33.3,27.7,29.92,WNW,292,0.0,3.8,80,0.00,,,0.01,WUHU21623XXSP,2013-03-26 13:38:00,
2013-03-26 09:48:00,33.4,27.9,29.92,NW,315,0.0,2.2,80,0.00,,,0.01,WUHU21623XXSP,2013-03-26 13:48:00,
2013-03-26 09:58:00,34.0,28.2,29.93,NW,315,0.0,2.9,80,0.00,,,0.01,WUHU21623XXSP,2013-03-26 13:58:00,
2013-03-26 10:08:00,34.3,28.8,29.93,NW,315,0.0,4.3,80,0.00,,,0.01,WUHU21623XXSP,2013-03-26 14:08:00,
2013-03-26 10:18:00,34.9,29.0,29.93,NW,315,4.9,4.9,79,0.00,,,0.01,WUHU21623XXSP,2013-03-26 14:18:00,
2013-03-26 10:28:00,35.4,29.2,29.93,West,270,1.6,3.8,78,0.02,,,0.02,WUHU21623XXSP,2013-03-26 14:28:00,
2013-03-26 10:38:00,36.1,29.4,29.94,WNW,292,0.9,1.8,77,0.02,,,0.03,WUHU21623XXSP,2013-03-26 14:38:00,
2013-03-26 10:48:00,36.1,28.9,29.94,NW,315,2.9,5.4,75,0.02,,,0.03,WUHU21623XXSP,2013-03-26 14:48:00,
2013-03-26 10:58:00,36.3,28.8,29.94,NNE,22,1.3,5.4,74,0.04,,,0.05,WUHU21623XXSP,2013-03-26 14:58:00,
2013-03-26 11:08:00,36.7,29.2,29.94,NW,315,2.2,4.3,74,0.04,,,0.05,WUHU21623XXSP,2013-03-26 15:08:00,
2013-03-26 11:18:00,37.2,29.0,29.94,WNW,292,8.1,8.1,72,0.05,,,0.05,WUHU21623XXSP,2013-03-26 15:18:00,
2013-03-26 11:28:00,37.4,28.9,29.94,NW,315,7.8,8.3,71,0.04,,,0.06,WUHU21623XXSP,2013-03-26 15:28:00,
2013-03-26 11:38:00,38.1,29.6,29.95,NW,315,2.2,6.9,71,0.05,,,0.08,WUHU21623XXSP,2013-03-26 15:38:00,
2013-03-26 11:48:00,38.3,29.0,29.95,NW,315,4.7,7.4,69,0.04,,,0.08,WUHU21623XXSP,2013-03-26 15:48:00,
2013-03-26 11:58:00,38.5,28.8,29.95,NW,315,4.0,7.2,68,0.04,,,0.09,WUHU21623XXSP,2013-03-26 15:58:00,
2013-03-26 12:08:00,39.0,29.7,29.95,West,270,2.7,4.3,69,0.05,,,0.09,WUHU21623XXSP,2013-03-26 16:08:00,
2013-03-26 12:18:00,38.8,28.4,29.95,NW,315,3.1,6.7,66,0.05,,,0.10,WUHU21623XXSP,2013-03-26 16:18:00,
2013-03-26 12:28:00,38.1,27.7,29.95,NNW,337,0.0,6.5,66,0.03,,,0.10,WUHU21623XXSP,2013-03-26 16:28:00,
2013-03-26 12:38:00,38.1,28.1,29.96,NE,45,6.3,7.8,67,0.03,,,0.11,WUHU21623XXSP,2013-03-26 16:38:00,
2013-03-26 12:48:00,38.1,28.5,29.96,NNE,22,0.0,6.0,68,0.02,,,0.11,WUHU21623XXSP,2013-03-26 16:48:00,
2013-03-26 12:58:00,38.5,28.4,29.96,NNE,22,0.4,4.9,67,0.02,,,0.11,WUHU21623XXSP,2013-03-26 16:58:00,
2013-03-26 13:08:00,38.8,28.4,29.95,NW,315,5.4,5.4,66,0.02,,,0.12,WUHU21623XXSP,2013-03-26 17:08:00,
2013-03-26 13:18:00,39.4,28.5,29.96,NW,315,5.8,5.8,65,0.02,,,0.12,WUHU21623XXSP,2013-03-26 17:18:00,
2013-03-26 13:28:00,40.1,28.5,29.96,NW,315,5.1,6.9,63,0.02,,,0.12,WUHU21623XXSP,2013-03-26 17:28:00,
2013-03-26 13:38:00,40.6,28.2,29.95,WNW,292,4.7,5.6,61,0.01,,,0.12,WUHU21623XXSP,2013-03-26 17:38:00,
2013-03-26 13:48:00,41.2,28.8,29.95,NW,315,8.3,8.3,61,0.01,,,0.12,WUHU21623XXSP,2013-03-26 17:48:00,
2013-03-26 13:58:00,41.5,29.1,29.95,NW,315,2.0,6.7,61,0.01,,,0.12,WUHU21623XXSP,2013-03-26 17:58:00,
2013-03-26 14:08:00,41.7,28.0,29.95,NW,315,4.3,7.8,58,0.00,,,0.12,WUHU21623XXSP,2013-03-26 18:08:00,
2013-03-26 14:18:00,41.7,27.5,29.95,North,0,3.4,7.4,57,0.00,,,0.12,WUHU21623XXSP,2013-03-26 18:18:00,
2013-03-26 14:28:00,41.7,27.5,29.95,NW,315,6.9,7.4,57,0.00,,,0.12,WUHU21623XXSP,2013-03-26 18:28:00,
2013-03-26 14:38:00,41.5,27.4,29.95,WNW,292,6.5,8.3,57,0.00,,,0.12,WUHU21623XXSP,2013-03-26 18:38:00,
2013-03-26 14:48:00,42.1,27.9,29.95,North,0,2.7,4.7,57,0.00,,,0.12,WUHU21623XXSP,2013-03-26 18:48:00,
2013-03-26 14:58:00,42.1,27.4,29.95,WNW,292,4.7,6.9,56,0.00,,,0.12,WUHU21623XXSP,2013-03-26 18:58:00,
2013-03-26 15:08:00,42.1,27.0,29.94,West,270,7.4,8.7,55,0.00,,,0.12,WUHU21623XXSP,2013-03-26 19:08:00,
2013-03-26 15:18:00,42.6,28.6,29.94,West,270,2.9,2.9,56,0.00,,,0.12,WUHU21623XXSP,2013-03-26 19:18:00,
2013-03-26 15:28:00,42.1,27.8,29.95,NNE,22,6.7,6.7,56,0.00,,,0.12,WUHU21623XXSP,2013-03-26 19:28:00,
2013-03-26 15:38:00,40.1,27.4,29.95,NW,315,8.1,9.6,59,0.00,,,0.12,WUHU21623XXSP,2013-03-26 19:38:00,
2013-03-26 15:48:00,39.4,27.0,29.95,NW,315,13.2,13.2,61,0.00,,,0.12,WUHU21623XXSP,2013-03-26 19:48:00,
2013-03-26 15:58:00,39.6,27.9,29.95,WNW,292,5.4,13.2,63,0.00,,,0.12,WUHU21623XXSP,2013-03-26 19:58:00,
2013-03-26 16:08:00,40.3,28.3,29.96,WNW,292,5.1,8.3,62,0.00,,,0.12,WUHU21623XXSP,2013-03-26 20:08:00,
2013-03-26 16:18:00,40.6,28.2,29.95,NNW,337,6.9,8.7,61,0.00,,,0.12,WUHU21623XXSP,2013-03-26 20:18:00,
2013-03-26 16:28:00,40.6,28.2,29.96,WNW,292,8.7,10.5,61,0.00,,,0.12,WUHU21623XXSP,2013-03-26 20:28:00,
2013-03-26 16:38:00,41.0,28.6,29.96,West,270,4.9,5.6,61,0.00,,,0.12,WUHU21623XXSP,2013-03-26 20:38:00,
2013-03-26 16:48:00,41.2,28.4,29.96,WNW,292,6.9,6.9,60,0.00,,,0.12,WUHU21623XXSP,2013-03-26 20:48:00,
2013-03-26 16:58:00,41.2,27.5,29.96,NW,315,7.6,8.5,58,0.00,,,0.12,WUHU21623XXSP,2013-03-26 20:58:00,
2013-03-26 17:08:00,41.2,27.5,29.96,NW,315,11.2,11.2,58,0.00,,,0.12,WUHU21623XXSP,2013-03-26 21:08:00,
2013-03-26 17:18:00,40.5,27.2,29.96,NNW,337,4.3,13.4,59,0.00,,,0.12,WUHU21623XXSP,2013-03-26 21:18:00,
2013-03-26 17:28:00,40.6,27.9,29.96,NW,315,3.8,6.9,61,0.00,,,0.12,WUHU21623XXSP,2013-03-26 21:28:00,
2013-03-26 17:38:00,38.8,28.7,29.98,NW,315,6.0,16.1,67,0.00,,,0.12,WUHU21623XXSP,2013-03-26 21:38:00,
2013-03-26 17:48:00,37.0,29.2,29.98,NW,315,5.1,6.9,73,0.00,,,0.12,WUHU21623XXSP,2013-03-26 21:48:00,
2013-03-26 17:58:00,36.9,29.0,29.98,NNE,22,4.0,6.9,73,0.00,,,0.12,WUHU21623XXSP,2013-03-26 21:58:00,
2013-03-26 18:08:00,37.6,30.0,29.98,North,0,2.5,4.7,74,0.00,,,0.12,WUHU21623XXSP,2013-03-26 22:08:00,
2013-03-26 18:18:00,38.1,29.9,29.98,NW,315,4.0,5.1,72,0.00,,,0.12,WUHU21623XXSP,2013-03-26 22:18:00,
2013-03-26 18:28:00,38.5,29.9,29.98,NW,315,6.0,6.0,71,0.00,,,0.12,WUHU21623XXSP,2013-03-26 22:28:00,
2013-03-26 18:38:00,38.8,29.5,29.99,NW,315,3.8,7.8,69,0.00,,,0.12,WUHU21623XXSP,2013-03-26 22:38:00,
2013-03-26 18:48:00,38.8,29.1,29.99,WNW,292,7.2,7.2,68,0.00,,,0.12,WUHU21623XXSP,2013-03-26 22:48:00,
2013-03-26 18:58:00,38.5,28.4,29.99,NW,315,8.5,8.5,67,0.00,,,0.12,WUHU21623XXSP,2013-03-26 22:58:00,
2013-03-26 19:08:00,38.3,28.1,30.00,NW,315,1.6,7.8,67,0.00,,,0.12,WUHU21623XXSP,2013-03-26 23:08:00,
2013-03-26 19:18:00,37.9,28.1,30.00,NW,315,4.9,6.7,67,0.00,,,0.12,WUHU21623XXSP,2013-03-26 23:18:00,
2013-03-26 19:28:00,37.9,27.9,30.00,NW,315,7.8,7.8,67,0.00,,,0.12,WUHU21623XXSP,2013-03-26 23:28:00,
2013-03-26 19:38:00,37.6,28.0,30.01,NNW,337,6.3,8.9,68,0.00,,,0.12,WUHU21623XXSP,2013-03-26 23:38:00,
2013-03-26 19:48:00,37.4,28.4,30.01,NW,315,3.4,8.5,69,0.00,,,0.12,WUHU21623XXSP,2013-03-26 23:48:00,
2013-03-26 19:58:00,37.4,28.2,30.02,NW,315,1.1,7.2,69,0.00,,,0.12,WUHU21623XXSP,2013-03-26 23:58:00,
2013-03-26 20:08:00,37.2,28.0,30.01,NW,315,0.0,7.6,69,0.00,,,0.12,WUHU21623XXSP,2013-03-27 00:08:00,
2013-03-26 20:18:00,37.2,28.0,30.02,NW,315,0.0,7.6,69,0.00,,,0.12,WUHU21623XXSP,2013-03-27 00:18:00,
2013-03-26 20:28:00,37.0,27.5,30.03,NNW,337,5.6,5.6,68,0.00,,,0.12,WUHU21623XXSP,2013-03-27 00:28:00,
2013-03-26 20:38:00,37.0,27.5,30.03,WNW,292,0.0,2.7,68,0.00,,,0.12,WUHU21623XXSP,2013-03-27 00:38:00,
2013-03-26 20:48:00,36.7,27.1,30.03,WNW,292,0.0,0.0,68,0.00,,,0.12,WUHU21623XXSP,2013-03-27 00:48:00,
2013-03-26 20:58:00,36.5,27.3,30.04,WNW,292,1.3,1.3,69,0.00,,,0.12,WUHU21623XXSP,2013-03-27 00:58:00,
2013-03-26 21:08:00,36.3,27.1,30.04,WNW,292,0.0,1.3,69,0.00,,,0.12,WUHU21623XXSP,2013-03-27 01:08:00,
2013-03-26 21:18:00,36.3,27.5,30.05,WNW,292,7.8,7.8,70,0.00,,,0.12,WUHU21623XXSP,2013-03-27 01:18:00,
2013-03-26 21:28:00,35.8,28.3,30.06,WNW,292,0.0,8.5,74,0.00,,,0.12,WUHU21623XXSP,2013-03-27 01:28:00,
2013-03-26 21:38:00,34.9,27.7,30.06,WNW,292,0.0,1.3,75,0.00,,,0.12,WUHU21623XXSP,2013-03-27 01:38:00,
2013-03-26 21:48:00,34.5,28.0,30.06,WNW,292,0.0,0.0,77,0.00,,,0.12,WUHU21623XXSP,2013-03-27 01:48:00,
2013-03-26 21:58:00,34.5,28.0,30.07,WNW,292,0.0,0.0,77,0.00,,,0.12,WUHU21623XXSP,2013-03-27 01:58:00,
2013-03-26 22:08:00,34.3,28.1,30.07,WNW,292,0.0,0.0,78,0.00,,,0.12,WUHU21623XXSP,2013-03-27 02:08:00,
2013-03-26 22:18:00,34.3,28.1,30.07,WNW,292,0.0,0.0,78,0.00,,,0.12,WUHU21623XXSP,2013-03-27 02:18:00,
2013-03-26 22:28:00,34.3,28.4,30.07,SW,225,0.0,0.0,79,0.00,,,0.12,WUHU21623XXSP,2013-03-27 02:28:00,
2013-03-26 22:38:00,34.3,28.4,30.07,SW,225,0.0,0.0,79,0.00,,,0.12,WUHU21623XXSP,2013-03-27 02:38:00,
2013-03-26 22:48:00,34.2,28.3,30.07,SW,225,0.0,0.0,79,0.00,,,0.12,WUHU21623XXSP,2013-03-27 02:48:00,
2013-03-26 22:58:00,34.0,28.1,30.07,SW,225,0.0,0.0,79,0.00,,,0.12,WUHU21623XXSP,2013-03-27 02:58:00,
2013-03-26 23:08:00,33.8,27.9,30.08,SW,225,0.0,0.0,79,0.00,,,0.12,WUHU21623XXSP,2013-03-27 03:08:00,
2013-03-26 23:18:00,33.6,27.7,30.07,SW,225,0.0,0.0,79,0.00,,,0.12,WUHU21623XXSP,2013-03-27 03:18:00,
2013-03-26 23:28:00,33.3,27.6,30.08,SW,225,0.0,0.0,79,0.00,,,0.12,WUHU21623XXSP,2013-03-27 03:28:00,
2013-03-26 23:38:00,33.1,27.6,30.08,SW,225,0.0,0.0,80,0.00,,,0.12,WUHU21623XXSP,2013-03-27 03:38:00,
2013-03-26 23:48:00,32.9,27.7,30.08,SW,225,0.0,0.0,81,0.00,,,0.12,WUHU21623XXSP,2013-03-27 03:48:00,
2013-03-26 23:58:00,32.9,27.7,30.08,SW,225,0.0,0.0,81,0.00,,,0.12,WUHU21623XXSP,2013-03-27 03:58:00,